Portada
METAR-TAF:

METAR-TAF

Aeroports :

Nii Ōshima, Japó

latitud: 34-47N, longitud: 139-22E, altitud: 38 m

Observació

L'informe es va fer fa 34 minuts, a les 02:00 UTC
Vent 21 kt del Sud/Sud-Oest amb ràfegues de 33 kt
Temperatura 29°C
Humitat 84%
Pressió 1009 hPa
Visibilitat 10 km o més
Escasses núvols a una alçada de 1000 ft
Cel ennuvolat a una alçada de 1500 ft

METAR: RJTO 230200Z 21021G33KT 9999 FEW010 BKN015 29/26 Q1009

Hora: 11:34 (02:34 UTC)


TAF: manca

Observacions i pronòstics meteorològics de més de 4000 aeroports (METAR i TAF).

Les estacions disponibles són els punts grocs i vermells al mapa.

Posi el ratolí al punt desitjat per veure el nom de l'estació.

Feu clic per veure les observacions i els pronòstics meteorològics.

Per canviar el mapa: feu clic els botons verds amb una creu de color negre per apropar; al botó verd amb un guió per allunyar la imatge; o en les fletxes verdes per a mapes adjacents.


METAR-TAF: